TimeEDT,TemperatureF,Dew PointF,Humidity,Sea Level PressureIn,VisibilityMPH,Wind Direction,Wind SpeedMPH,Gust SpeedMPH,PrecipitationIn,Events,Conditions,WindDirDegrees,DateUTC
12:54 AM,45.0,44.1,97,30.33,10.0,Calm,Calm,-,N/A,,Clear,0,2013-10-30 04:54:00
1:54 AM,45.0,44.1,97,30.32,10.0,Calm,Calm,-,N/A,,Clear,0,2013-10-30 05:54:00
2:54 AM,44.1,43.0,96,30.31,10.0,Calm,Calm,-,N/A,,Clear,0,2013-10-30 06:54:00
3:54 AM,44.1,43.0,96,30.30,10.0,Calm,Calm,-,N/A,,Clear,0,2013-10-30 07:54:00
4:54 AM,46.0,45.0,96,30.27,10.0,Calm,Calm,-,N/A,,Clear,0,2013-10-30 08:54:00
5:54 AM,44.1,43.0,96,30.27,10.0,Calm,Calm,-,N/A,,Clear,0,2013-10-30 09:54:00
6:54 AM,42.1,42.1,100,30.28,10.0,Calm,Calm,-,N/A,,Clear,0,2013-10-30 10:54:00
7:54 AM,44.1,44.1,100,30.28,10.0,Calm,Calm,-,N/A,,Mostly Cloudy,0,2013-10-30 11:54:00
8:54 AM,48.9,46.9,93,30.29,10.0,Calm,Calm,-,N/A,,Overcast,0,2013-10-30 12:54:00
9:54 AM,50.0,48.9,96,30.30,10.0,Calm,Calm,-,0.00,Rain,Light Rain,0,2013-10-30 13:54:00
10:54 AM,53.1,52.0,96,30.29,8.0,Calm,Calm,-,0.00,Rain,Light Rain,0,2013-10-30 14:54:00
11:54 AM,54.0,53.1,97,30.28,6.0,Calm,Calm,-,0.02,Rain,Light Rain,0,2013-10-30 15:54:00
12:54 PM,54.0,53.1,97,30.26,3.0,Calm,Calm,-,0.03,Rain,Rain,0,2013-10-30 16:54:00
1:07 PM,53.6,53.6,100,30.25,2.5,Calm,Calm,-,0.02,Rain,Rain,0,2013-10-30 17:07:00
1:15 PM,53.6,53.6,100,30.25,5.0,Calm,Calm,-,0.02,Rain,Light Rain,0,2013-10-30 17:15:00
1:54 PM,55.0,53.1,93,30.23,10.0,Calm,Calm,-,0.02,,Overcast,0,2013-10-30 17:54:00
2:05 PM,55.4,53.6,94,30.23,9.0,Calm,Calm,-,N/A,,Overcast,0,2013-10-30 18:05:00
2:34 PM,55.4,53.6,94,30.22,8.0,Variable,3.5,-,N/A,,Overcast,0,2013-10-30 18:34:00
2:54 PM,55.9,54.0,93,30.21,9.0,ESE,3.5,-,N/A,,Overcast,110,2013-10-30 18:54:00
3:18 PM,55.4,55.4,100,30.20,9.0,ESE,4.6,-,N/A,,Overcast,120,2013-10-30 19:18:00
3:54 PM,57.0,54.0,89,30.20,10.0,SSE,3.5,-,N/A,,Overcast,160,2013-10-30 19:54:00
4:54 PM,57.0,54.0,89,30.20,10.0,Calm,Calm,-,N/A,,Overcast,0,2013-10-30 20:54:00
5:54 PM,55.0,54.0,96,30.20,9.0,Calm,Calm,-,N/A,,Overcast,0,2013-10-30 21:54:00
6:47 PM,53.6,53.6,100,30.21,1.5,Calm,Calm,-,N/A,,Scattered Clouds,0,2013-10-30 22:47:00
6:49 PM,53.6,53.6,100,30.21,0.5,Calm,Calm,-,N/A,Fog,Fog,0,2013-10-30 22:49:00
6:54 PM,53.1,52.0,96,30.21,0.2,Calm,Calm,-,N/A,Fog,Fog,0,2013-10-30 22:54:00
7:30 PM,53.6,53.6,100,30.23,1.0,Calm,Calm,-,N/A,,Overcast,0,2013-10-30 23:30:00
7:40 PM,53.6,53.6,100,30.23,2.5,Calm,Calm,-,N/A,,Overcast,0,2013-10-30 23:40:00
7:54 PM,53.1,53.1,100,30.23,1.0,Calm,Calm,-,N/A,,Overcast,0,2013-10-30 23:54:00
8:02 PM,53.6,53.6,100,30.23,0.5,Calm,Calm,-,N/A,Fog,Fog,0,2013-10-31 00:02:00
8:18 PM,51.8,51.8,100,30.23,1.0,Calm,Calm,-,N/A,,Overcast,0,2013-10-31 00:18:00
8:39 PM,53.6,51.8,94,30.23,0.8,Calm,Calm,-,N/A,,Overcast,0,2013-10-31 00:39:00
8:54 PM,53.1,53.1,100,30.23,2.0,Calm,Calm,-,N/A,,Overcast,0,2013-10-31 00:54:00
9:03 PM,51.8,51.8,100,30.23,4.0,Calm,Calm,-,0.01,,Overcast,0,2013-10-31 01:03:00
9:39 PM,51.8,51.8,100,30.23,2.5,Calm,Calm,-,0.01,,Scattered Clouds,0,2013-10-31 01:39:00
9:54 PM,51.1,51.1,100,30.23,2.5,Calm,Calm,-,0.01,,Scattered Clouds,0,2013-10-31 01:54:00
10:10 PM,50.0,48.2,94,30.23,0.8,Calm,Calm,-,N/A,,Partly Cloudy,0,2013-10-31 02:10:00
10:14 PM,48.2,48.2,100,30.23,0.2,Calm,Calm,-,N/A,Fog,Fog,0,2013-10-31 02:14:00
10:20 PM,48.2,48.2,100,30.23,0.2,Calm,Calm,-,N/A,Fog,Fog,0,2013-10-31 02:20:00
10:54 PM,48.9,48.9,100,30.22,0.2,Calm,Calm,-,N/A,Fog,Fog,0,2013-10-31 02:54:00
11:08 PM,48.2,48.2,100,30.22,0.2,Calm,Calm,-,N/A,Fog,Fog,0,2013-10-31 03:08:00
11:21 PM,48.2,48.2,100,30.22,0.2,Calm,Calm,-,N/A,Fog,Fog,0,2013-10-31 03:21:00
11:37 PM,48.2,48.2,100,30.22,0.5,Calm,Calm,-,N/A,Fog,Fog,0,2013-10-31 03:37:00
11:44 PM,48.2,48.2,100,30.22,0.2,Calm,Calm,-,N/A,Fog,Fog,0,2013-10-31 03:44:00
11:54 PM,48.0,48.0,100,30.22,0.2,Calm,Calm,-,N/A,Fog,Fog,0,2013-10-31 03:54:00